FENGYUN 1C DEB

Satellite information

Favourite Embed

Satellite Type and Status

DEBRISIN ORBIT

Key statistics

Satellite FENGYUN 1C DEB at a glance.

Uptime

9662

Days in orbit

Revolutions

≈ 13.7

Per day

Orbit

SSO

Sun Synchronous Orbit

Inclination

98.5

Latest

Satellite identification and parameters

Extended collection of information and parameters for FENGYUN 1C DEB.

Object identification

Identified? True

Debris? True

Object name: FENGYUN 1C DEB

International designator: 1999-025CXT

Object number (NORAD): 32326

Object ID (CCSDS): 32326

Country: PEOPLES REPUBLIC OF CHINA (PRC)

Current information (Y/N): Y

RCS size: SMALL

Orbital parameters

Period: 105.172 minutes

Inclination: 98.4852 deg

SMA: 7380.643 km

Apoapsis: 1287.85 km

Periapsis: 717.166 km

RAAN: 229.1069 deg

Eccentricy: 0.03866085

Argument of periapsis: 281.6792 deg

Mean anomaly: 74.1224 deg

Mean motion: 13.69182799 rev/day

Mean motion (dot): 0.00001637 rev/day2

B* drag term: 0.0011449114 1/REarth

Two-line elements (TLE)

Creation date: Oct. 20, 2025, 6:08 p.m.

Reference frame: TEME

Reference center: EARTH

Epoch: Oct. 20, 2025, 1:10 p.m. UTC

TLE line 0: 0 FENGYUN 1C DEB

TLE line 1: 1 32326U 99025CXT 25293.54921354 .00001637 00000-0 11449-2 0 9993

TLE line 2: 2 32326 98.4852 229.1069 0386608 281.6792 74.1224 13.69182799624545

Live tracking on map

Real-time ground track for satellite FENGYUN 1C DEB.

In-orbit conjunctions

A list of the most updated potential collisions computed for object FENGYUN 1C DEB.

Target Orbit TCA Probability of collision Miss distance Type
THOR ABLESTAR DEB LEO 2025-05-14 19:35:27 0.0001025892 211.0 (m) DEBRIS
COSMOS 1275 DEB LEO 2024-12-14 18:32:29 0.0001551079 227.0 (m) DEBRIS

Associated space launch

Chinese polar orbiting meteorological satellite

FENGYUN 1C DEB was lifted into orbit during the mission ‘Long March 4B | Feng Yun 1C’, on board a Long March 4B space rocket.

The launch took place on May 10, 1999, 1:33 a.m. from Launch Complex 7.

For more information about the launch, click the button.

Launch to space Long March 4B | Feng Yun 1C
Long March 4B | Feng Yun 1C

Agency: N/A

Status: Launch Successful

Launch date: May 10, 1999, 1:33 a.m. UTC

Rocket: Long March 4B

Launch pad: Launch Complex 7

Location: Taiyuan Satellite Launch Center, People's Republic of China

...

Latest news about this satellite

There are no fresh news available about this satellite. Check back as we update our databases every day.


Newsletter sign-up

Weekly statistics, charts and insights to help you stay on top of the space industry.